THORAD DELTA 1 DEB, 8164

Orbit data source: Space-Track

THORAD DELTA 1 DEB, 8164 is space debris in SSO originally from a launch on Fri, 15 Nov 1974 UTC launched from the Air Force Western Test Range (AFWTR). Debris objects in space refer to the collection of defunct objects orbiting the Earth. Examples of debris include non-operational satellites, rocket bodies, and fragments generated from explosions, collisions, or faulty payload assembly.

Loading next visibility...
Identifier
8164, 1974-089AE
Orbit
SSO
Country
Flag of USUS
Related business
Manufacturer
Unknown
Mission
Spacecraft
Bus & Motor
Unknown
Mass
Unknown
Launch date (UTC)
1974-11-15 (51 years ago)
Launch vehicle
Unknown
Launch site
Air Force Western Test Range (AFWTR)
Object type
Payload
Rocket body
Debris
Shape & HBR
Unknown
Radar Cross Section
Medium (>0.1 m² and <1 m²)

Expand to show TLE details & history
Last TLE update: 11 hours ago

TLE from 11 hours ago
0 THORAD DELTA 1 DEB
1 08164U 74089AE  25242.85662781 -.00000041  00000-0  55225-6 0  9996
2 08164 101.6008  15.5153 0121036 170.3936 322.3791 12.28967812278942
Epoch: 2025-08-30T20:33Z
TLE epoch observation values (Epoch: 2025-08-30T20:33:32.642Z)
Latitude
46.88737°
Longitude
-79.55235°
Altitude
1,485.097 km
Speed
7.159 km/s
True Right ascension
13h 52m 28s
True Declination
46° 43' 54"
Sunlit
Object was in daylight at epoch
Visualization orbit readout
Latitude
Unknown
Longitude
Unknown
Altitude
Unknown
Speed
Unknown
Apparent Right ascension
Unknown
Apparent Declination
Unknown
Sunlit
N/A
Visualization observer readout
Local Sidereal Time
22:57:26
Azimuth
Unknown
Elevation
Unknown
Doppler factor
Unknown
Orbital elements
Apogee altitude
1,647.259 km
Perigee altitude
1,455.31 km
Semi-major axis
7,929.422 km
Eccentricity
0.0121
Inclination
101.6008°
RAAN
15.5153°
Arg. of periapsis
170.3936°
True anomaly
321.52221°
Mean anomaly
322.3791°
Eccentric anomaly
321.95169°
Mean motion
3.07384 °/min
Orbital period
117.12 mins
BSTAR
5.5225e-7
Loading maneuver chart data...
Computing Atmospheric mass density...
Loading historical data...
Loading historical data...
Loading historical data...
Loading historical data...
Loading historical data...
Loading historical data...
Loading historical data...

Documentation

Showing up to 5 results
|